Probability
0 0 0 0 0 0 0 0 0 0 0 0 0 0 0 0 0 0 0 0 0 0 0 0 0 0 0 0 0 0 0 0 0 0 0 0 0 0 0 0 0 0 0 0
0 0 0 0 0 0 0 0 0 0 0 0 0 0 0 0 0 0 0 0 0 0 0 0 0 0 0 0 0 0 0 0 0 0 0 0 0 0 0 0 0 0 0 0
0 0 0 0 0 0 0 0 0 0 0 0 0 0 0 0 0 0 0 0 0 0 0 0 0 0 0 0 0 0 0 0 0 0 0 0 0 0 0 0 0 0 0 0
0 0 0 0 0 0 0 0 0 0 0 0 0 0 0 0 0 0 0 0 0 0 0 0 0 0 0 0 0 0 0 0 0 0 0 0 0 0 0 0 0 0 0 0
0 0 0 0 0 0 0 0 0 0 0 0 0 0 0 0 0 0 0 0 0 0 0 0 0 0 0 0 0 0 0 0 0 0 0 0 0 0 0 0 0 0 0 0
0 0 0 0 0 0 0 0 0 0 0 0 0 0 0 0 0 0 0 0 0 0 0 0 0 0 0 0 0 0 0 0 0 0 0 0 0 0 0 0 0 0 0 0
0 0 0 0 0 0 0 0 0 0 0 0 0 0 0 0 0 0 0 0 0 0 0 0 0 0 0 0 0 0 0 0 0 0 0 0 0 0 0 0 0 0 0 0
0 0 0 0 0 0 0 0 0 0 0 0 0 0 0 0 0 0 0 0 0 0 0 0 0 0 0 0 0 0 0 0 0 0 0 0 0 0 0 0 0 0 0 0
0 0 0 0 0 0 0 0 0 0 0 0 0 0 0 0 0 0 0 0 0 0 0 0 0 0 0 0 0 0 0 0 0 0 0 0 0 0 0 0 0 0 0 0
0 0 0 0 0 0 0 0 0 0 0 0 0 0 0 0 0 0 0 0 0 0 0 0 0 0 0 0 0 0 0 0 0 0 0 0 0 0 0 0 0 0 0 0
0 0 0 0 0 0 0 0 0 0 0 0 0 0 0 0 0 0 0 0 0 0 0 0 0 0 0 0 0 0 0 0 0 0 0 0 0 0 0 0 0 0 0 0
0 0 0 0 0 0 0 0 0 0 0 0 0 0 0 0 0 0 0 0 0 0 0 0 0 0 0 0 0 0 0 0 0 0 0 0 0 0 0 0 0 0 0 0
0 0 0 0 0 0 0 0 0 0 0 0 0 0 0 0 0 0 0 0 0 0 0 0 0 0 0 0 0 0 0 0 0 0 0 0 0 0 0 0 0 0 0 0
0 0 0 0 0 0 0 0 0 0 0 0 0 0 0 0 0 0 0 0 0 0 0 0 0 0 0 0 0 0 0 0 0 0 0 0 0 0 0 0 0 0 0 0
0 0 0 0 0 0 0 0 0 0 0 0 0 0 0 0 0 0 0 0 0 0 0 0 0 0 0 0 0 0 0 0 0 0 0 0 0 0 0 0 0 0 0 0
0 0 0 0 0 0 0 0 0 0 0 0 0 0 0 0 0 0 0 0 0 0 0 0 0 0 0 0 0 0 0 0 0 0 0 0 0 0 0 0 0 0 0 0
0 0 0 0 0 0 0 0 0 0 0 0 0 0 0 0 0 0 0 0 0 0 0 0 0 0 0 0 0 0 0 0 0 0 0 0 0 0 0 0 0 0 0 0
0 0 0 0 0 0 0 0 0 0 0 0 0 0 0 0 0 0 0 0 0 0 0 0 0 0 0 0 0 0 0 0 0 0 0 0 0 0 0 0 0 0 0 0
0 0 0 0 0 0 0 0 0 0 0 0 0 0 0 0 0 0 0 0 0 0 0 0 0 0 0 0 0 0 0 0 0 0 0 0 0 0 0 0 0 0 0 0
0 0 0 0 0 0 0 0 0 0 0 0 0 0 0 0 0 0 0 0 0 0 0 0 0 0 0 0 0 0 0 0 0 0 0 0 0 0 0 0 0 0 0 0
0 0 0 0 0 0 0 0 0 0 0 0 0 0 0 0 0 0 0 0 0 0 0 0 0 0 0 0 0 0 0 0 0 0 0 0 0 0 0 0 0 0 0 0
0 0 0 0 0 0 0 0 0 0 0 0 0 0 0 0 0 0 0 0 0 0 0 0 0 0 0 0 0 0 0 0 0 0 0 0 0 0 0 0 0 0 0 0
0 0 0 0 0 0 0 0 0 0 0 0 0 0 0 0 0 0 0 0 0 0 0 0 0 0 0 0 0 0 0 0 0 0 0 0 0 0 0 0 0 0 0 0
0 0 0 0 0 0 0 0 0 0 0 0 0 0 0 0 0 0 0 0 0 0 0 0 0 0 0 0 0 0 0 0 0 0 0 0 0 0 0 0 0 0 0 0
0 0 0 0 0 0 0 0 0 0 0 0 0 0 0 0 0 0 0 0 0 0 0 0 0 0 0 0 0 0 0 0 0 0 0 0 0 0 0 0 0 0 0 0
0 0 0 0 0 0 0 0 0 0 0 0 0 0 0 0 0 0 0 0 0 0 0 0 0 0 0 0 0 0 0 0 0 0 0 0 0 0 0 0 0 0 0 0
Height
5729 5729 5727 5727 5726 5725 5723 5722 5721 5719 5717 5715 5714 5714 5713 5711 5710 5709 5708 5706 5705 5705 5704 5703 5703 5703 5703 5704 5704 5705 5706 5707 5708 5709 5710 5712 5714 5715 5717 5718 5719 5720 5721 5722
5721 5721 5721 5719 5717 5715 5714 5712 5711 5710 5707 5705 5704 5703 5703 5701 5700 5699 5698 5697 5696 5695 5694 5693 5693 5692 5692 5692 5692 5693 5694 5695 5696 5697 5698 5700 5702 5703 5705 5706 5707 5707 5708 5709
5713 5714 5712 5710 5708 5706 5705 5703 5702 5700 5698 5695 5694 5694 5694 5692 5691 5690 5689 5687 5686 5685 5684 5684 5683 5682 5681 5680 5680 5681 5682 5683 5684 5685 5686 5688 5690 5691 5693 5694 5694 5694 5695 5696
5705 5704 5703 5701 5700 5698 5696 5695 5692 5690 5688 5686 5685 5683 5685 5683 5682 5681 5680 5678 5677 5675 5674 5674 5672 5671 5670 5669 5669 5669 5670 5671 5671 5672 5674 5676 5678 5679 5680 5681 5681 5682 5683 5684
5696 5696 5694 5693 5692 5689 5687 5685 5683 5680 5678 5676 5675 5673 5675 5674 5673 5672 5671 5669 5667 5666 5664 5663 5662 5661 5659 5658 5658 5657 5658 5659 5659 5660 5662 5663 5665 5665 5667 5668 5669 5670 5670 5671
5687 5686 5685 5683 5682 5680 5678 5676 5673 5670 5668 5666 5667 5664 5664 5665 5664 5663 5661 5660 5658 5656 5655 5653 5652 5650 5649 5648 5647 5646 5646 5647 5647 5649 5650 5651 5652 5653 5654 5655 5656 5657 5658 5658
5679 5677 5676 5674 5673 5671 5668 5666 5663 5660 5658 5657 5657 5654 5655 5656 5654 5653 5651 5650 5648 5646 5645 5643 5641 5640 5639 5638 5637 5636 5635 5635 5636 5637 5638 5639 5639 5640 5641 5642 5643 5644 5645 5646
5669 5668 5667 5665 5663 5661 5659 5657 5655 5652 5649 5648 5646 5644 5646 5646 5644 5642 5640 5639 5637 5636 5634 5633 5631 5629 5628 5627 5626 5625 5624 5624 5624 5625 5625 5626 5626 5627 5628 5629 5630 5631 5632 5633
5659 5659 5657 5655 5653 5652 5649 5647 5645 5642 5639 5637 5636 5635 5636 5635 5633 5631 5630 5628 5626 5625 5623 5621 5620 5618 5617 5616 5615 5614 5613 5612 5612 5612 5612 5613 5613 5614 5615 5615 5616 5617 5618 5619
5649 5648 5648 5645 5643 5641 5640 5638 5636 5633 5629 5627 5626 5626 5626 5625 5623 5621 5620 5618 5615 5613 5612 5610 5609 5607 5606 5605 5604 5603 5602 5601 5600 5600 5600 5600 5601 5601 5602 5602 5603 5603 5604 5605
5640 5639 5638 5636 5634 5632 5631 5629 5626 5623 5621 5618 5616 5619 5616 5615 5613 5611 5609 5607 5605 5602 5600 5598 5597 5596 5595 5593 5592 5591 5590 5589 5588 5587 5587 5587 5587 5588 5588 5589 5590 5590 5590 5590
5630 5628 5627 5627 5625 5622 5621 5619 5617 5615 5613 5610 5607 5610 5606 5604 5601 5600 5598 5596 5594 5591 5589 5587 5586 5584 5583 5582 5581 5579 5578 5577 5576 5575 5575 5574 5574 5574 5575 5575 5576 5575 5575 5575
5621 5619 5617 5616 5617 5614 5611 5610 5608 5605 5603 5600 5598 5600 5596 5593 5591 5589 5587 5585 5583 5581 5579 5577 5575 5573 5572 5571 5569 5568 5566 5565 5564 5563 5563 5562 5562 5561 5562 5562 5562 5561 5561 5561
5611 5609 5609 5608 5605 5603 5602 5601 5598 5595 5592 5590 5589 5588 5587 5583 5581 5579 5577 5574 5572 5570 5568 5566 5564 5562 5561 5559 5558 5556 5555 5553 5552 5552 5551 5550 5549 5549 5548 5548 5548 5547 5547 5546
5602 5600 5599 5598 5596 5594 5592 5591 5589 5586 5583 5581 5580 5578 5576 5573 5571 5568 5566 5564 5562 5560 5558 5556 5554 5552 5550 5548 5547 5545 5544 5542 5541 5539 5538 5537 5536 5536 5535 5535 5534 5533 5533 5532
5592 5591 5590 5589 5587 5584 5583 5582 5579 5576 5574 5571 5569 5568 5566 5563 5560 5558 5556 5554 5552 5550 5547 5545 5543 5541 5539 5538 5536 5534 5532 5531 5529 5528 5526 5525 5523 5523 5522 5521 5520 5520 5519 5518
5583 5582 5580 5579 5578 5574 5574 5573 5570 5567 5564 5562 5559 5559 5556 5553 5550 5548 5546 5544 5542 5540 5537 5535 5533 5530 5529 5527 5525 5523 5521 5519 5518 5516 5514 5512 5511 5510 5509 5507 5506 5505 5504 5503
5574 5572 5569 5568 5567 5564 5567 5563 5560 5557 5555 5552 5549 5548 5545 5543 5541 5538 5536 5534 5532 5530 5528 5525 5523 5520 5518 5516 5513 5511 5510 5508 5506 5504 5502 5500 5499 5497 5495 5494 5493 5491 5490 5489
5564 5562 5559 5557 5555 5553 5555 5553 5549 5546 5545 5542 5539 5537 5535 5533 5531 5529 5526 5524 5522 5520 5518 5515 5513 5510 5508 5505 5503 5500 5498 5496 5494 5492 5490 5488 5486 5484 5482 5480 5479 5477 5476 5474
5554 5552 5551 5548 5545 5544 5546 5542 5538 5536 5534 5533 5529 5527 5525 5523 5521 5520 5517 5514 5512 5510 5507 5505 5502 5500 5497 5495 5492 5489 5487 5484 5482 5479 5477 5475 5473 5471 5469 5467 5465 5463 5461 5459
5545 5542 5541 5538 5535 5534 5534 5531 5529 5528 5526 5522 5519 5517 5515 5513 5511 5509 5507 5504 5502 5500 5497 5495 5492 5489 5487 5484 5481 5478 5476 5473 5470 5467 5465 5463 5460 5458 5455 5453 5451 5448 5447 5445
5535 5533 5531 5528 5526 5528 5524 5522 5520 5517 5515 5512 5509 5507 5505 5503 5501 5498 5496 5494 5492 5490 5487 5485 5482 5479 5477 5474 5471 5468 5465 5462 5459 5456 5453 5450 5447 5445 5442 5439 5437 5435 5432 5431
5526 5525 5521 5520 5520 5517 5514 5512 5510 5508 5505 5503 5500 5498 5496 5493 5491 5489 5486 5484 5482 5480 5477 5475 5472 5469 5466 5463 5461 5458 5454 5451 5448 5445 5441 5438 5435 5432 5429 5426 5424 5421 5419 5417
5518 5515 5513 5511 5510 5507 5505 5503 5501 5498 5496 5494 5491 5489 5486 5484 5481 5479 5477 5474 5472 5470 5467 5464 5462 5459 5456 5453 5450 5447 5444 5440 5437 5434 5430 5426 5423 5420 5417 5413 5411 5409 5406 5405
5509 5507 5504 5502 5501 5498 5497 5494 5492 5490 5487 5485 5482 5479 5477 5474 5472 5469 5467 5464 5462 5459 5456 5454 5451 5449 5446 5443 5440 5437 5433 5430 5427 5423 5419 5415 5412 5408 5405 5402 5399 5396 5394 5392
5502 5499 5496 5494 5492 5489 5488 5485 5483 5481 5478 5476 5473 5471 5468 5465 5463 5460 5457 5454 5451 5449 5446 5443 5440 5438 5435 5432 5429 5426 5423 5419 5416 5412 5408 5405 5401 5397 5393 5390 5387 5384 5382 5380
Wind_Speed
27 27 28 29 30 31 32 33 33 34 34 35 36 35 35 34 34 34 34 34 34 34 35 36 37 38 38 39 40 41 41 42 43 43 44 44 43 43 44 44 45 45 45 46
28 28 28 29 30 31 32 33 33 33 34 35 35 35 34 34 34 34 34 33 34 34 35 36 37 38 39 39 40 41 42 42 43 43 44 45 44 44 45 45 45 46 46 47
28 28 29 29 30 31 32 33 33 33 33 34 35 35 33 34 34 34 33 33 33 34 35 36 36 38 39 39 39 41 42 43 44 44 45 45 45 45 46 46 46 46 47 47
28 28 28 29 30 30 31 32 32 33 33 33 34 35 32 33 33 33 33 33 34 35 35 36 37 38 38 39 39 40 41 43 44 44 45 45 46 46 45 46 47 47 48 48
29 28 28 29 30 31 31 31 32 33 33 34 33 35 32 32 32 32 33 34 35 36 37 37 37 37 38 39 40 41 41 42 44 45 45 45 46 46 46 46 46 47 48 48
30 30 30 30 30 31 31 32 33 33 34 35 33 35 34 32 32 32 33 34 34 36 36 37 37 38 39 39 40 41 42 42 44 45 45 45 45 46 47 47 47 47 47 48
31 30 31 31 31 31 32 33 34 34 35 35 33 35 34 33 33 33 33 34 34 35 36 36 37 38 39 39 40 41 42 42 43 44 45 46 46 45 46 47 48 47 47 48
32 31 31 31 31 32 32 32 33 35 35 35 35 35 34 33 33 33 34 34 35 36 36 36 37 37 38 38 39 40 40 41 43 44 45 46 46 46 46 47 47 48 48 48
32 32 32 32 32 32 33 32 32 34 36 36 36 35 34 34 34 34 35 35 35 36 36 37 38 38 38 38 38 39 39 41 42 43 44 45 45 45 45 46 47 47 48 48
32 33 32 33 33 33 33 32 32 33 35 36 36 35 35 34 34 34 35 35 35 36 37 37 37 37 38 38 39 39 39 40 41 42 43 44 44 45 45 45 46 46 47 48
33 33 33 33 33 32 32 33 33 34 35 36 38 36 35 35 35 36 35 35 35 35 36 37 37 37 38 38 39 39 39 40 42 42 43 44 44 44 45 45 46 47 48 49
32 33 33 33 33 32 33 33 33 34 34 36 38 37 36 36 37 37 36 36 36 35 35 35 36 37 38 38 38 39 39 40 41 42 42 43 44 44 45 46 47 48 49 49
32 33 32 32 32 32 32 32 33 34 35 35 36 36 36 37 37 37 37 37 36 36 36 35 35 36 37 37 38 38 39 40 40 40 41 42 44 45 45 46 47 48 48 49
32 32 32 32 31 31 31 31 32 33 35 36 35 35 35 36 37 37 37 37 36 36 36 36 35 35 36 36 37 37 38 39 40 41 42 43 44 44 45 46 47 47 48 48
32 32 32 31 31 32 31 31 32 33 34 36 35 35 35 36 35 35 36 36 36 36 36 36 36 36 36 36 37 37 38 39 40 42 42 43 44 45 46 46 47 46 46 47
32 33 33 32 31 32 32 31 32 33 34 35 35 35 34 35 36 36 36 36 36 36 36 36 36 37 37 37 38 38 39 40 40 41 42 43 43 45 46 47 47 47 48 48
32 33 33 32 32 33 33 32 32 33 33 34 35 35 34 34 35 35 36 37 36 35 35 36 37 37 37 37 38 39 40 40 41 41 42 43 43 44 46 47 46 46 47 48
32 32 33 33 33 34 33 33 33 34 33 33 34 34 34 34 34 35 35 35 36 36 35 35 36 36 36 37 37 38 39 40 41 42 43 43 43 43 44 45 45 46 48 48
33 33 34 34 35 36 34 34 33 34 34 34 34 34 34 33 34 34 34 35 35 35 35 35 35 36 36 37 37 38 39 40 41 42 42 43 43 43 44 45 45 46 47 48
32 32 33 34 34 35 33 33 33 34 34 34 34 34 34 34 34 33 34 34 34 34 35 35 35 35 36 36 37 38 39 39 40 41 41 42 43 44 44 44 45 46 47 47
31 32 32 33 33 33 33 33 33 33 34 34 34 34 34 34 34 33 33 33 33 33 34 35 35 35 35 35 36 37 38 38 39 39 40 42 42 43 44 44 45 46 46 47
30 31 32 32 32 32 31 31 32 33 33 34 33 33 33 33 33 33 33 32 32 33 34 35 35 35 36 36 36 37 37 37 37 38 39 40 41 42 42 43 43 44 45 46
28 29 30 31 31 31 31 31 31 32 32 32 32 32 32 32 32 32 32 33 33 33 34 34 35 35 36 36 36 36 36 36 37 38 38 39 39 40 41 41 42 43 44 44
27 28 29 29 28 28 29 29 30 30 30 31 32 31 31 31 31 31 32 33 33 34 34 34 34 34 35 35 35 35 35 36 36 36 37 38 38 38 39 39 39 40 41 42
27 27 27 27 27 27 28 29 29 30 31 32 32 32 32 32 32 33 33 34 34 34 34 34 34 34 34 34 34 34 34 34 35 36 36 36 37 37 37 37 38 39 40 40
25 26 26 26 27 28 28 29 29 29 30 31 32 32 32 33 33 33 33 34 34 34 34 34 34 33 33 33 33 34 34 34 34 34 35 35 35 35 36 36 36 37 37 38
Wind_Direction
273 274 275 276 277 277 276 275 275 275 274 274 273 273 273 272 272 272 273 272 270 268 267 267 266 266 265 264 262 261 260 260 260 259 258 256 256 256 256 257 258 258 259 258
274 275 277 278 278 278 277 277 278 277 276 275 274 273 273 272 272 272 272 272 270 269 268 269 269 268 266 265 263 261 260 259 260 259 258 256 256 257 256 258 259 259 259 258
277 277 277 278 279 279 278 279 279 279 277 275 274 272 272 272 272 272 272 272 271 270 269 270 270 270 269 266 263 261 260 259 259 259 258 257 257 257 257 259 259 260 259 258
278 278 278 278 279 280 280 280 280 279 277 276 275 274 272 273 272 273 273 273 272 271 271 271 271 270 269 268 265 263 261 260 260 259 258 257 257 258 258 259 259 259 259 258
278 278 278 279 280 280 281 280 279 279 278 276 276 276 274 274 273 274 274 275 274 274 273 273 273 272 270 269 267 264 262 261 260 259 258 258 258 260 258 259 258 259 259 258
279 279 279 280 280 281 281 281 280 279 278 276 276 277 276 275 276 276 277 277 276 276 276 274 273 271 271 270 269 266 264 263 261 259 258 258 260 260 258 259 259 258 258 258
279 278 279 279 279 280 281 282 282 281 279 278 278 278 277 277 278 278 278 278 277 276 275 274 274 273 272 271 270 268 266 265 262 260 259 259 260 260 259 260 258 258 258 258
281 279 279 280 280 281 281 281 282 282 281 281 280 279 279 279 279 279 278 278 277 276 275 274 274 274 273 272 271 269 268 266 264 260 259 259 260 260 259 260 258 259 259 259
283 281 280 281 280 280 280 280 281 282 283 282 281 280 280 280 281 281 281 280 279 277 275 274 274 274 273 272 271 270 269 267 265 263 261 261 262 261 261 260 260 260 260 260
283 283 282 281 280 279 280 282 282 281 283 284 283 283 283 282 282 283 283 281 279 279 277 274 274 274 273 272 272 271 270 268 265 264 263 263 263 262 261 261 261 262 262 262
283 283 283 282 281 281 280 281 281 281 281 282 284 285 284 284 283 283 283 282 281 279 278 276 273 273 273 273 273 272 271 268 266 265 265 264 263 263 262 263 262 263 263 263
283 282 282 282 282 281 281 282 281 280 281 281 283 285 285 284 284 284 283 282 281 280 278 277 274 274 274 273 273 272 271 269 267 266 265 265 264 264 264 265 265 265 265 265
285 284 284 283 283 283 283 282 282 281 280 281 282 283 285 284 284 284 284 284 282 280 279 278 277 275 275 274 273 272 271 270 269 268 267 266 266 265 265 266 267 266 266 266
285 284 283 284 286 286 285 284 282 281 281 281 282 283 283 283 284 284 284 284 283 283 281 279 278 277 275 274 273 273 272 270 269 269 269 268 268 266 266 266 267 267 266 266
283 283 282 282 283 285 286 285 284 282 281 282 283 282 283 283 283 283 283 283 283 283 282 280 279 279 277 275 274 274 273 272 271 271 271 270 269 267 267 268 268 268 268 267
281 281 283 282 282 283 284 284 284 284 283 283 283 283 285 285 284 283 283 283 284 284 283 282 282 281 279 277 276 275 274 274 273 272 272 271 270 269 268 269 269 268 267 268
281 283 284 284 283 283 283 285 285 285 285 285 285 285 286 287 287 286 285 285 285 286 284 283 283 282 280 279 277 276 275 275 275 274 273 272 272 271 270 270 269 269 268 268
282 282 283 284 283 282 286 285 285 286 286 287 287 287 286 287 287 287 287 287 286 286 285 283 283 283 282 281 280 278 278 277 276 275 274 274 274 273 273 272 271 270 269 269
282 283 283 284 284 283 284 286 287 286 286 287 288 286 286 287 287 286 286 287 287 287 286 285 284 285 284 283 282 281 280 280 278 277 275 275 275 275 274 273 272 271 271 270
283 284 284 284 285 286 287 286 286 287 288 289 288 287 285 286 285 285 286 287 287 287 286 284 284 286 287 286 285 283 283 282 280 279 278 276 276 276 275 274 273 273 272 271
284 284 285 285 285 287 288 288 289 289 290 290 290 289 286 286 285 285 286 286 285 285 285 285 286 287 288 288 287 286 286 285 283 282 280 279 278 277 276 275 273 273 273 272
287 287 287 287 286 288 289 289 289 289 290 291 292 291 288 287 286 286 286 286 286 287 287 287 287 287 287 288 288 289 289 288 286 285 283 282 281 279 277 275 275 274 273 273
288 288 288 288 287 288 287 287 287 289 290 291 292 290 288 288 288 287 286 285 286 288 289 288 288 287 287 288 289 290 289 289 288 287 286 284 283 281 279 277 276 274 273 273
287 287 288 290 290 289 289 289 289 290 291 292 293 291 289 290 290 289 288 288 288 289 289 288 288 289 289 290 290 290 290 290 290 289 288 287 285 283 281 279 277 276 273 272
288 290 290 290 290 288 288 289 289 290 292 293 294 293 292 292 291 290 290 290 289 289 288 288 288 289 290 290 290 290 291 292 292 291 290 288 286 285 283 282 280 278 276 274
291 291 290 290 290 288 288 287 288 290 292 293 294 294 294 293 293 292 292 292 291 290 290 290 290 290 290 290 289 290 291 292 292 292 291 290 289 288 287 286 284 282 279 277